Granbury, TX

1:54 AM CDT on June 26, 2017 (GMT -0500)
Granbury

Weather History for KGDJ - March, 2013

Change the Weather History Date:

Monday, March 4, 2013

  Actual Average (KSEP) Record (KSEP)
Temperature  
Mean Temperature 72 °F -  
Max Temperature 87 °F 65 °F 86 °F (2013)
Min Temperature 57 °F 39 °F 18 °F (1978)
Cooling Degree Days 7    
Growing Degree Days 22 (Base 50)    
Moisture  
Dew Point 33 °F    
Average Humidity 28    
Maximum Humidity 55    
Minimum Humidity 13    
Precipitation  
Precipitation 0.00 in - - ()
Sea Level Pressure  
Sea Level Pressure 29.70 in    
Wind  
Wind Speed 13 mph (SSW)    
Max Wind Speed 25 mph    
Max Gust Speed 33 mph    
Visibility 10 miles    
Events      
Averages and records for this station are not official NWS values.
T = Trace of Precipitation, MM = Missing Value Source: NWS Daily Summary

Daily Weather History Graph

Daily Weather History Graph

Search for Another Location

Airport or City:

Trip Planner

Search our weather history database for the weather conditions in past years. The results will help you decide how hot, cold, wet, or windy it might be!

Date:

Astronomy

Mar. 04, 2013 Rise Set
Actual Time 6:54 AM CST 6:31 PM CST
Civil Twilight 6:30 AM CST 6:55 PM CST
Nautical Twilight 6:01 AM CST 7:24 PM CST
Astronomical Twilight 5:33 AM CST 7:52 PM CST
Moon 12:52 AM CST (3/4) 11:28 AM CST (3/4)
Length of Visible Light 12h 25m
Length of Day
11h 36m
Waning Gibbous, 52% of the Moon is Illuminated
Mar 4
Waning Gibbous
Mar 4
Last Quarter
Mar 11
New
Mar 19
First Quarter
Mar 27
Full

Hourly Weather History & Observations

Time (CST) Temp. Dew Point Humidity Pressure Visibility Wind Dir Wind Speed Gust Speed Precip Events Conditions
12:15 AM 62.6 °F 32.0 °F 32% 29.78 in 10.0 mi SSE 15.0 mph 23.0 mph N/A   Clear
12:35 AM 62.6 °F 33.8 °F 34% 29.77 in 10.0 mi SSE 16.1 mph 20.7 mph N/A   Clear
12:55 AM 62.6 °F 35.6 °F 37% 29.77 in 10.0 mi SSE 16.1 mph 24.2 mph N/A   Clear
1:15 AM 62.6 °F 37.4 °F 39% 29.76 in 10.0 mi SSE 18.4 mph 24.2 mph N/A   Clear
1:35 AM 60.8 °F 37.4 °F 42% 29.76 in 10.0 mi South 18.4 mph 24.2 mph N/A   Clear
1:55 AM 60.8 °F 37.4 °F 42% 29.76 in 10.0 mi SSE 13.8 mph 23.0 mph N/A   Clear
2:15 AM 60.8 °F 37.4 °F 42% 29.76 in 10.0 mi SSE 12.7 mph 18.4 mph N/A   Clear
2:35 AM 60.8 °F 37.4 °F 42% 29.75 in 10.0 mi SSE 10.4 mph 18.4 mph N/A   Clear
2:55 AM 60.8 °F 37.4 °F 42% 29.75 in 10.0 mi SSE 11.5 mph 18.4 mph N/A   Clear
3:15 AM 59.0 °F 37.4 °F 45% 29.74 in 10.0 mi SSE 10.4 mph - N/A   Clear
3:35 AM 59.0 °F 37.4 °F 45% 29.74 in 10.0 mi SSE 10.4 mph - N/A   Clear
3:55 AM 59.0 °F 37.4 °F 45% 29.73 in 10.0 mi SSE 11.5 mph - N/A   Clear
4:15 AM 59.0 °F 37.4 °F 45% 29.74 in 10.0 mi South 11.5 mph 18.4 mph N/A   Clear
4:35 AM 59.0 °F 39.2 °F 48% 29.74 in 10.0 mi SSE 10.4 mph - N/A   Clear
4:55 AM 59.0 °F 37.4 °F 45% 29.75 in 10.0 mi SE 4.6 mph - N/A   Clear
5:15 AM 57.2 °F 39.2 °F 51% 29.74 in 10.0 mi SSE 8.1 mph - N/A   Clear
5:35 AM 59.0 °F 37.4 °F 45% 29.74 in 10.0 mi SSE 6.9 mph - N/A   Clear
6:15 AM 59.0 °F 37.4 °F 45% 29.73 in 10.0 mi SSE 8.1 mph - N/A   Clear
6:35 AM 59.0 °F 37.4 °F 45% 29.73 in 10.0 mi South 6.9 mph - N/A   Clear
6:55 AM 59.0 °F 37.4 °F 45% 29.73 in 10.0 mi South 8.1 mph - N/A   Clear
7:15 AM 59.0 °F 37.4 °F 45% 29.72 in 10.0 mi South 12.7 mph 18.4 mph N/A   Clear
7:35 AM 60.8 °F 37.4 °F 42% 29.73 in 10.0 mi SSW 11.5 mph 18.4 mph N/A   Clear
7:55 AM 62.6 °F 37.4 °F 39% 29.73 in 10.0 mi SSW 13.8 mph 20.7 mph N/A   Clear
8:15 AM 62.6 °F 37.4 °F 39% 29.73 in 10.0 mi SSW 12.7 mph 24.2 mph N/A   Clear
8:35 AM 64.4 °F 35.6 °F 34% 29.73 in 10.0 mi SSW 17.3 mph 24.2 mph N/A   Clear
8:55 AM 64.4 °F 35.6 °F 34% 29.74 in 10.0 mi SSW 17.3 mph 24.2 mph N/A   Clear
9:15 AM 66.2 °F 35.6 °F 32% 29.73 in 10.0 mi SW 16.1 mph 25.3 mph N/A   Clear
9:35 AM 68.0 °F 35.6 °F 30% 29.73 in 10.0 mi SW 16.1 mph - N/A   Clear
9:55 AM 71.6 °F 35.6 °F 27% 29.73 in 10.0 mi SW 16.1 mph 25.3 mph N/A   Clear
10:15 AM 73.4 °F 33.8 °F 23% 29.73 in 10.0 mi SW 20.7 mph 26.5 mph N/A   Clear
10:35 AM 73.4 °F 33.8 °F 23% 29.72 in 10.0 mi SW 17.3 mph 20.7 mph N/A   Clear
10:55 AM 78.8 °F 32.0 °F 18% 29.72 in 10.0 mi SW 17.3 mph 24.2 mph N/A   Clear
11:15 AM 78.8 °F 32.0 °F 18% 29.72 in 10.0 mi WSW 16.1 mph 21.9 mph N/A   Clear
11:35 AM 78.8 °F 32.0 °F 18% 29.72 in 10.0 mi SW 16.1 mph 20.7 mph N/A   Clear
11:55 AM 80.6 °F 30.2 °F 16% 29.72 in 10.0 mi WSW 13.8 mph 20.7 mph N/A   Clear
12:15 PM 80.6 °F 30.2 °F 16% 29.70 in 10.0 mi SW 12.7 mph 18.4 mph N/A   Clear
12:55 PM 82.4 °F 30.2 °F 15% 29.69 in 10.0 mi WSW 15.0 mph 24.2 mph N/A   Clear
1:15 PM 84.2 °F 30.2 °F 14% 29.67 in 10.0 mi SW 13.8 mph 21.9 mph N/A   Clear
1:35 PM 84.2 °F 30.2 °F 14% 29.66 in 10.0 mi SW 16.1 mph 23.0 mph N/A   Clear
1:55 PM 86.0 °F 32.0 °F 14% 29.66 in 10.0 mi SW 13.8 mph 21.9 mph N/A   Clear
2:15 PM 86.0 °F 32.0 °F 14% 29.65 in 10.0 mi SSW 18.4 mph - N/A   Clear
2:35 PM 86.0 °F 30.2 °F 13% 29.64 in 10.0 mi SSW 13.8 mph - N/A   Clear
2:55 PM 86.0 °F 30.2 °F 13% 29.63 in 10.0 mi SSW 17.3 mph 23.0 mph N/A   Clear
3:35 PM 87.8 °F 30.2 °F 13% 29.62 in 10.0 mi SW 12.7 mph 23.0 mph N/A   Clear
3:55 PM 87.8 °F 30.2 °F 13% 29.62 in 10.0 mi WSW 13.8 mph 20.7 mph N/A   Clear
4:15 PM 86.0 °F 30.2 °F 13% 29.62 in 10.0 mi SW 13.8 mph 19.6 mph N/A   Clear
4:35 PM 86.0 °F 30.2 °F 13% 29.62 in 10.0 mi South 12.7 mph - N/A   Clear
4:55 PM 86.0 °F 30.2 °F 13% 29.62 in 10.0 mi SSW 16.1 mph 21.9 mph N/A   Clear
5:15 PM 86.0 °F 30.2 °F 13% 29.63 in 10.0 mi SSW 16.1 mph 21.9 mph N/A   Clear
5:35 PM 84.2 °F 30.2 °F 14% 29.63 in 10.0 mi SSW 11.5 mph - N/A   Clear
5:55 PM 82.4 °F 28.4 °F 14% 29.64 in 10.0 mi SSW 9.2 mph - N/A   Clear
6:15 PM 80.6 °F 28.4 °F 15% 29.64 in 10.0 mi South 9.2 mph - N/A   Clear
6:55 PM 77.0 °F 30.2 °F 18% 29.64 in 10.0 mi South 4.6 mph - N/A   Clear
7:15 PM 73.4 °F 30.2 °F 20% 29.65 in 10.0 mi South 8.1 mph - N/A   Clear
7:35 PM 73.4 °F 30.2 °F 20% 29.65 in 10.0 mi South 6.9 mph - N/A   Clear
7:55 PM 71.6 °F 30.2 °F 22% 29.65 in 10.0 mi South 6.9 mph - N/A   Clear
8:35 PM 73.4 °F 26.6 °F 18% 29.65 in 10.0 mi SSW 8.1 mph - N/A   Clear
8:55 PM 73.4 °F 28.4 °F 19% 29.65 in 10.0 mi South 8.1 mph - N/A   Clear
9:15 PM 71.6 °F 26.6 °F 19% 29.65 in 10.0 mi South 5.8 mph - N/A   Clear
9:35 PM 71.6 °F 23.0 °F 16% 29.66 in 10.0 mi SSW 8.1 mph - N/A   Clear
9:55 PM 71.6 °F 21.2 °F 15% 29.66 in 10.0 mi SSW 10.4 mph - N/A   Clear
10:15 PM 71.6 °F 21.2 °F 15% 29.66 in 10.0 mi SSW 11.5 mph - N/A   Clear
10:35 PM 69.8 °F 21.2 °F 16% 29.70 in 10.0 mi WSW 11.5 mph 17.3 mph N/A   Clear
10:55 PM 71.6 °F 21.2 °F 15% 29.72 in 10.0 mi WNW 6.9 mph - N/A   Clear
11:15 PM 68.0 °F 35.6 °F 30% 29.78 in 10.0 mi NNW 15.0 mph 27.6 mph N/A   Clear
11:35 PM 64.4 °F 41.0 °F 42% 29.82 in 10.0 mi NW 23.0 mph 28.8 mph N/A   Clear
11:55 PM 57.2 °F 41.0 °F 55% 29.85 in 10.0 mi NNW 25.3 mph 33.4 mph N/A   Clear